Ravenna, OH

10:39 AM EDT on October 15, 2019 (GMT -0400)
Ravenna

Weather History for KPOV - September, 2019

Change the Weather History Date:

Wednesday, September 18, 2019

  Actual Average (KCAK) Record (KCAK)
Temperature  
Mean Temperature 63 °F -  
Max Temperature 74 °F 73 °F 91 °F (1955)
Min Temperature 52 °F 53 °F 37 °F (1959)
Degree Days  
Heating Degree Days 2    
Growing Degree Days 13 (Base 50)    
Moisture  
Dew Point 49 °F    
Average Humidity 66    
Maximum Humidity 91    
Minimum Humidity 34    
Precipitation  
Precipitation 0.00 in - - ()
Sea Level Pressure  
Sea Level Pressure 30.22 in    
Wind  
Wind Speed 6 mph (East)    
Max Wind Speed 12 mph    
Max Gust Speed -    
Visibility 10 miles    
Events      
Averages and records for this station are not official NWS values.
T = Trace of Precipitation, MM = Missing Value Source: NWS Daily Summary

Daily Weather History Graph

Daily Weather History Graph

Search for Another Location

Airport or City:

Astronomy

Sep. 18, 2019 Rise Set
Actual Time 7:08 AM EDT 7:29 PM EDT
Civil Twilight 6:40 AM EDT 7:56 PM EDT
Nautical Twilight 6:08 AM EDT 8:29 PM EDT
Astronomical Twilight 5:34 AM EDT 9:02 PM EDT
Moon 10:00 PM EDT (9/18) 11:12 AM EDT (9/18)
Length of Visible Light 13h 16m
Length of Day
12h 21m
Waning Gibbous, 82% of the Moon is Illuminated
Sep 18
Waning Gibbous
Sep 21
Last Quarter
Sep 28
New
Oct 5
First Quarter
Oct 13
Full

Hourly Weather History & Observations

Time (EDT) Temp. Dew Point Humidity Pressure Visibility Wind Dir Wind Speed Gust Speed Precip Events Conditions
12:15 AM 56.7 °F 52.5 °F 86% 30.18 in 10.0 mi ENE 4.6 mph - N/A   Clear
12:35 AM 56.7 °F 52.7 °F 87% 30.18 in 10.0 mi East 4.6 mph - N/A   Clear
1:15 AM 55.6 °F 51.8 °F 87% 30.19 in 10.0 mi ENE 4.6 mph - N/A   Clear
1:38 AM 55.2 °F 51.8 °F 88% 30.19 in 10.0 mi East 4.6 mph - N/A   Clear
1:56 AM 55.8 °F 52.3 °F 88% 30.20 in 10.0 mi ENE 5.8 mph - N/A   Clear
2:18 AM 55.0 °F 51.6 °F 88% 30.20 in 10.0 mi East 4.6 mph - N/A   Clear
2:36 AM 54.9 °F 51.6 °F 89% 30.20 in 10.0 mi East 5.8 mph - N/A   Clear
2:55 AM 54.5 °F 51.1 °F 88% 30.20 in 10.0 mi East 4.6 mph - N/A   Clear
3:15 AM 53.6 °F 50.7 °F 90% 30.19 in 10.0 mi East 5.8 mph - N/A   Clear
3:35 AM 53.1 °F 50.4 °F 91% 30.19 in 10.0 mi East 5.8 mph - N/A   Clear
3:58 AM 53.2 °F 50.4 °F 90% 30.19 in 10.0 mi ENE 6.9 mph - N/A   Clear
4:15 AM 53.6 °F 50.7 °F 90% 30.19 in 10.0 mi East 5.8 mph - N/A   Clear
4:38 AM 53.6 °F 50.4 °F 89% 30.19 in 10.0 mi East 5.8 mph - N/A   Clear
4:56 AM 53.2 °F 50.0 °F 89% 30.20 in 10.0 mi East 5.8 mph - N/A   Clear
5:18 AM 53.2 °F 50.0 °F 89% 30.21 in 10.0 mi East 6.9 mph - N/A   Clear
5:36 AM 53.4 °F 49.8 °F 88% 30.20 in 10.0 mi East 5.8 mph - N/A   Clear
5:55 AM 53.1 °F 49.6 °F 88% 30.21 in 10.0 mi East 5.8 mph - N/A   Clear
6:15 AM 53.2 °F 49.5 °F 87% 30.20 in 10.0 mi East 4.6 mph - N/A   Clear
6:35 AM 52.9 °F 49.3 °F 88% 30.21 in 10.0 mi East 4.6 mph - N/A   Clear
6:58 AM 52.0 °F 49.1 °F 90% 30.22 in 10.0 mi ENE 6.9 mph - N/A   Clear
7:15 AM 52.2 °F 49.1 °F 89% 30.22 in 10.0 mi East 5.8 mph - N/A   Clear
7:38 AM 53.2 °F 50.0 °F 89% 30.23 in 10.0 mi East 6.9 mph - N/A   Clear
7:56 AM 54.5 °F 50.7 °F 87% 30.24 in 10.0 mi East 5.8 mph - N/A   Clear
8:18 AM 56.3 °F 51.1 °F 83% 30.24 in 10.0 mi East 6.9 mph - N/A   Clear
8:36 AM 57.9 °F 51.6 °F 80% 30.24 in 10.0 mi East 5.8 mph - N/A   Clear
8:55 AM 59.5 °F 50.9 °F 73% 30.24 in 10.0 mi East 8.1 mph - N/A   Clear
9:15 AM 61.0 °F 51.6 °F 71% 30.24 in 10.0 mi East 6.9 mph - N/A   Clear
9:58 AM 63.5 °F 51.6 °F 65% 30.24 in 10.0 mi East 9.2 mph - N/A   Clear
10:15 AM 64.8 °F 52.9 °F 65% 30.24 in 10.0 mi East 8.1 mph - N/A   Clear
10:38 AM 66.2 °F 52.5 °F 61% 30.24 in 10.0 mi East 6.9 mph - N/A   Clear
10:56 AM 67.6 °F 52.9 °F 59% 30.23 in 10.0 mi East 6.9 mph - N/A   Clear
11:18 AM 68.0 °F 52.9 °F 58% 30.24 in 10.0 mi East 9.2 mph - N/A   Clear
11:36 AM 68.4 °F 52.5 °F 57% 30.24 in 10.0 mi East 10.4 mph - N/A   Clear
12:15 PM 70.3 °F 51.3 °F 51% 30.23 in 10.0 mi East 9.2 mph - N/A   Clear
12:35 PM 70.7 °F 49.8 °F 48% 30.23 in 10.0 mi SE 8.1 mph - N/A   Clear
12:58 PM 71.6 °F 48.4 °F 44% 30.23 in 7.0 mi ESE 8.1 mph - N/A   Clear
1:15 PM 71.8 °F 47.1 °F 41% 30.23 in 10.0 mi ESE 9.2 mph - N/A   Clear
1:38 PM 73.2 °F 50.2 °F 44% 30.24 in 10.0 mi East 9.2 mph - N/A   Clear
1:56 PM 73.2 °F 46.4 °F 38% 30.25 in 10.0 mi East 11.5 mph - N/A   Clear
2:18 PM 73.9 °F 47.3 °F 39% 30.24 in 10.0 mi East 4.6 mph - N/A   Clear
2:36 PM 73.6 °F 47.8 °F 40% 30.24 in 10.0 mi East 6.9 mph - N/A   Clear
2:55 PM 73.8 °F 47.5 °F 39% 30.23 in 10.0 mi East 10.4 mph - N/A   Clear
3:15 PM 74.1 °F 48.0 °F 40% 30.22 in 10.0 mi East 11.5 mph - N/A   Clear
3:35 PM 73.8 °F 46.9 °F 38% 30.22 in 10.0 mi East 11.5 mph - N/A   Clear
3:58 PM 73.8 °F 46.4 °F 38% 30.22 in 10.0 mi East 9.2 mph - N/A   Clear
4:15 PM 74.1 °F 44.1 °F 34% 30.21 in 10.0 mi East 9.2 mph - N/A   Clear
4:38 PM 73.4 °F 43.0 °F 34% 30.22 in 10.0 mi East 8.1 mph - N/A   Clear
4:56 PM 73.6 °F 44.4 °F 35% 30.22 in 10.0 mi East 9.2 mph - N/A   Clear
5:18 PM 72.7 °F 44.4 °F 36% 30.22 in 10.0 mi ENE 8.1 mph - N/A   Clear
5:36 PM 71.8 °F 42.6 °F 35% 30.21 in 10.0 mi East 9.2 mph - N/A   Clear
5:55 PM 71.4 °F 45.5 °F 39% 30.22 in 10.0 mi ENE 9.2 mph - N/A   Clear
6:15 PM 70.0 °F 45.9 °F 42% 30.22 in 10.0 mi ENE 6.9 mph - N/A   Clear
6:35 PM 68.5 °F 46.4 °F 45% 30.22 in 10.0 mi East 5.8 mph - N/A   Clear
6:58 PM 65.5 °F 46.8 °F 51% 30.21 in 10.0 mi ENE 5.8 mph - N/A   Clear
7:15 PM 64.4 °F 48.6 °F 56% 30.22 in 10.0 mi Calm Calm - N/A   Clear
7:38 PM 61.0 °F 49.3 °F 65% 30.21 in 10.0 mi ENE 4.6 mph - N/A   Clear
7:56 PM 59.0 °F 49.6 °F 71% 30.21 in 10.0 mi ENE 5.8 mph - N/A   Clear
8:18 PM 58.8 °F 48.9 °F 70% 30.22 in 10.0 mi East 3.5 mph - N/A   Clear
8:36 PM 56.1 °F 50.0 °F 80% 30.22 in 10.0 mi East 5.8 mph - N/A   Clear
8:55 PM 56.5 °F 48.9 °F 76% 30.22 in 10.0 mi East 5.8 mph - N/A   Clear
9:15 PM 56.8 °F 48.4 °F 73% 30.22 in 10.0 mi ENE 4.6 mph - N/A   Clear
9:35 PM 57.2 °F 47.7 °F 70% 30.22 in 10.0 mi East 5.8 mph - N/A   Clear
9:58 PM 56.3 °F 47.7 °F 73% 30.22 in 10.0 mi East 5.8 mph - N/A   Clear
10:15 PM 56.3 °F 46.6 °F 70% 30.22 in 7.0 mi East 6.9 mph - N/A   Clear
10:38 PM 57.6 °F 45.5 °F 64% 30.22 in 10.0 mi East 8.1 mph - N/A   Clear
10:56 PM 57.4 °F 44.4 °F 62% 30.21 in 10.0 mi East 6.9 mph - N/A   Clear
11:18 PM 57.7 °F 43.2 °F 58% 30.21 in 10.0 mi East 6.9 mph - N/A   Clear
11:36 PM 58.1 °F 42.6 °F 56% 30.21 in 10.0 mi ESE 4.6 mph - N/A   Clear
11:55 PM 57.9 °F 42.8 °F 57% 30.22 in 10.0 mi East 4.6 mph - N/A   Clear